Tracking 19817 objects as of 19-Aug-2019
HD Live streaming from Space Station
objects crossing your sky now

GSLV R/B

Track GSLV R/B now!
10-day predictions


NORAD ID: 43242
Int'l Code: 2018-027B
Perigee: 135.1 km
Apogee: 19,641.2 km
Inclination: 20.3 °
Period: 343.9 minutes
Semi major axis: 16259 km
RCS: Unknown
Launch date: March 29, 2018
Source: India (IND)
Launch site: SRIHARIKOTA (SRI)

Note: This is a ROCKET BODY
aabbcc
Your satellite tracking list
Your tracking list is empty




NASA's NSSDC Master Catalog

Two Line Element Set (TLE):
1 43242U 18027B   19230.43775755 +.00640891 +79172-6 +55876-3 0  9995
2 43242 020.3314 346.5609 5998499 023.8401 355.0458 04.18752195016261
Source of the keplerian elements: AFSPC